This is the latest recevied weather packets stored in our database for station/object DL3NDS-WX. If no packets are shown the sender has not sent any weather packets the latest 1 day(s).
| Time | Temp. | Humidity | Pressure | Rain* | Wind** | Luminosity | Snow |
|---|---|---|---|---|---|---|---|
| 1777976473 | 21.67° C | 55% | 1009.3 hPa | 0 mm | 1.34 m/s, 84° | 884 W/m² | - |
| 1777976412 | 21.67° C | 55% | 1009.3 hPa | 0 mm | 1.34 m/s, 94° | 860 W/m² | - |
| 1777976351 | 21.67° C | 56% | 1009.3 hPa | 0 mm | 1.34 m/s, 103° | 830 W/m² | - |
| 1777976288 | 21.67° C | 56% | 1009.4 hPa | 0 mm | 1.79 m/s, 66° | 796 W/m² | - |
| 1777976227 | 21.67° C | 55% | 1009.4 hPa | 0 mm | 1.79 m/s, 72° | 861 W/m² | - |
| 1777976167 | 21.67° C | 55% | 1009.4 hPa | 0 mm | 1.34 m/s, 85° | 872 W/m² | - |
| 1777976105 | 21.67° C | 55% | 1009.4 hPa | 0 mm | 1.34 m/s, 115° | 865 W/m² | - |
| 1777976043 | 21.11° C | 55% | 1009.5 hPa | 0 mm | 1.79 m/s, 91° | 844 W/m² | - |
| 1777975984 | 21.67° C | 56% | 1009.5 hPa | 0 mm | 1.79 m/s, 83° | 831 W/m² | - |
| 1777975920 | 21.67° C | 55% | 1009.6 hPa | 0 mm | 1.34 m/s, 45° | 838 W/m² | - |
| 1777975859 | 21.67° C | 56% | 1009.5 hPa | 0 mm | 1.34 m/s, 68° | 840 W/m² | - |
| 1777975801 | 21.11° C | 56% | 1009.5 hPa | 0 mm | 0.89 m/s, 121° | 821 W/m² | - |
| 1777975736 | 21.11° C | 58% | 1009.4 hPa | 0 mm | 0.89 m/s, 97° | 826 W/m² | - |
| 1777975675 | 21.11° C | 57% | 1009.6 hPa | 0 mm | 1.34 m/s, 53° | 754 W/m² | - |
| 1777975613 | 20.56° C | 56% | 1009.6 hPa | 0 mm | 1.79 m/s, 38° | 747 W/m² | - |
| 1777975553 | 20.56° C | 56% | 1009.5 hPa | 0 mm | 1.79 m/s, 80° | 809 W/m² | - |
| 1777975497 | 20.56° C | 57% | 1009.6 hPa | 0 mm | 1.79 m/s, 68° | 798 W/m² | - |
| 1777975433 | 20.56° C | 56% | 1009.6 hPa | 0 mm | 2.24 m/s, 63° | 772 W/m² | - |
| 1777975381 | 20.56° C | 57% | 1009.7 hPa | 0 mm | 2.24 m/s, 63° | 780 W/m² | - |
| 1777975311 | 20.56° C | 57% | 1009.6 hPa | 0 mm | 1.79 m/s, 53° | 803 W/m² | - |
| 1777975261 | 20.56° C | 58% | 1009.6 hPa | 0 mm | 2.68 m/s, 73° | 791 W/m² | - |
| 1777975190 | 20.56° C | 58% | 1009.6 hPa | 0 mm | 2.24 m/s, 66° | 761 W/m² | - |
| 1777975127 | 20.56° C | 58% | 1009.6 hPa | 0 mm | 2.24 m/s, 78° | 856 W/m² | - |
| 1777975075 | 20.56° C | 57% | 1009.7 hPa | 0 mm | 1.79 m/s, 85° | 854 W/m² | - |
| 1777975041 | 20.56° C | 58% | 1009.6 hPa | 0 mm | 1.34 m/s, 72° | 851 W/m² | - |
* Rain latest hour (hover to see other rain measurements)
** Current wind speed in m/s (hover to see current wind gust speed)